Retour au catalogue

COSMOS 1275 DEB

ActifPO
NORAD 12664·DEBRIS·🇷🇺 Russia

Lancé Jun 4, 1981 depuis Plesetsk Cosmodrome

Loading…

Prochains Passages (prochaines 24 heures)

TLE

FraisSource: Space-Track

Époque: Sep 14, 2026, 15:02 UTC

1 12664U 81053U   26257.62667356  .00000324  00000-0  31884-3 0  9995
2 12664  82.8931 204.4608 0080165  31.1022 141.6779 13.74538613254495

Suivez COSMOS 1275 DEB en temps réel avec AllMySat

Download on the App Store